Simultaneous Nadir Overpasses (SNOs) Predictions

Prediction of SNOs between GOES-15 and TERRA Satellite Orbit:

Table of predicted SNOs for the next 14.0 days since TLE Epoch: 11/23/2024
Index Date Time (GOES-15) GOES-15 Lat,Lon TERRA Lat,Lon Distance(km) Time Diff (sec)
1 11/24/2024 17:15:20 0.19, 61.68 0.85, 64.92 368.67 80
2 11/25/2024 05:35:02 -0.18, 61.58 0.10, 60.12 164.65 80
3 11/27/2024 05:19:25 -0.18, 61.55 -0.78, 64.53 339.13 80
4 11/27/2024 17:39:15 0.17, 61.63 -0.21, 59.71 217.57 80
5 11/29/2024 17:18:18 0.17, 61.61 0.72, 64.11 285.08 80
6 11/30/2024 05:37:59 -0.16, 61.52 0.32, 59.33 249.61 80
7 12/02/2024 05:22:22 -0.16, 61.51 -0.66, 63.73 253.24 80
8 12/02/2024 17:42:11 0.15, 61.58 -0.38, 58.92 302.50 80
9 12/04/2024 17:21:12 0.15, 61.58 0.52, 63.34 199.17 80
10 12/05/2024 05:40:53 -0.14, 61.51 0.48, 58.55 337.00 80
